Preview of NWS' New Version of Forecast
This preview is not operational and should not be used for support decisions.

Regional Weather Roundup (RWR)

Issued by National Weather Service (NWS)

                            
000
ASUS45 KABQ 211210
RWRNM 
NEW MEXICO REGIONAL WEATHER ROUNDUP
NATIONAL WEATHER SERVICE ALBUQUERQUE NM
600 AM MDT SAT SEP 21 2019

NOTE: "FAIR" MEANS FEW OR NO CLOUDS BELOW 12,000 FEET AGL WITH NO
       SIGNIFICANT WEATHER OR OBSTRUCTIONS TO VISION.

      THIS PRODUCT IS RELEASED AS TWO VERSIONS.  ONE VERSION NEAR
      THE TOP OF THE HOUR CONTAINING PRELIMINARY DATA FROM ALBUQUERQUE
      AND OTHER STATIONS.  A FINAL VERSION WITH ADDITIONAL DATA IS 
      ISSUED ABOUT 10 MINUTES AFTER THE HOUR.
 
NMZ501-503-504-510>518-211300-
NORTHWEST PLATEAU/NORTHCENTRAL MOUNTAINS
  
CITY           SKY/WX    TMP DP  RH WIND       PRES   REMARKS
FARMINGTON     FAIR      43  25  49 E9        30.10R                  
6HR MIN TEMP:  40; 6HR MAX TEMP:  59;                                

LOS ALAMOS     FAIR      59  27  29 SW3       30.21R                  
SANTA FE       FAIR      44  33  65 N7        30.15R                  
6HR MIN TEMP:  43; 6HR MAX TEMP:  61;                                

TAOS           FAIR      43  25  49 SE6       30.20R                  

$$
NMZ402-403-502-505>509-211300-
WESTCENTRAL MOUNTAINS/SOUTHWEST MOUNTAINS
  
CITY           SKY/WX    TMP DP  RH WIND       PRES   REMARKS
GALLUP         FAIR      41  26  55 E5        30.16S                  
6HR MIN TEMP:  40; 6HR MAX TEMP:  54;                                

GRANTS         FAIR      39  34  81 W9        30.20R WCI  33          
SILVER CITY    FAIR      55  42  62 NW8       30.11R                  

$$
NMZ407-409-411-412-211300-
SOUTHERN DESERTS
  
CITY           SKY/WX    TMP DP  RH WIND       PRES   REMARKS
DEMING         FAIR      61  48  62 W8        30.03R                  
6HR MIN TEMP:  59; 6HR MAX TEMP:  69;                                

LAS CRUCES     CLOUDY    68  48  48 W5        30.04R                  
HOLLOMAN AFB   CLOUDY    72  49  44 S7        30.02R                  
ALAMOGORDO     MOCLDY    68  54  60 S8        30.01R                  
T OR C         FAIR      63  44  50 CALM      30.05R                  
6HR MIN TEMP:  63; 6HR MAX TEMP:  67;                                


$$
NMZ519>523-211300-
CENTRAL VALLEYS/CENTRAL HIGHLANDS
  
CITY           SKY/WX    TMP DP  RH WIND       PRES   REMARKS
ALBUQUERQUE    FAIR      60  32  34 CALM      30.11R                  
6HR MIN TEMP:  58; 6HR MAX TEMP:  69;                                

DOUBLE EAGLE   CLEAR     48  34  57 S3        30.13S                  
MORIARTY ARPT  FAIR      42  39  88 N5        30.17R                  
6HR MIN TEMP:  42; 6HR MAX TEMP:  59;                                

CLINES CORNERS FAIR      52  29  41 NW9       30.20R                  
6HR MIN TEMP:  48; 6HR MAX TEMP:  61;                                

BELEN          FAIR      55  32  43 CALM      30.11R                  
6HR MIN TEMP:  54; 6HR MAX TEMP:  64;                                

SOCORRO        CLOUDY    60  37  42 NW7       30.07R                  
6HR MIN TEMP:  58; 6HR MAX TEMP:  69;                                


$$
NMZ524>526-539-540-211300-
SOUTHCENTRAL MOUNTAINS
  
CITY           SKY/WX    TMP DP  RH WIND       PRES   REMARKS
RUIDOSO        FAIR      55  41  58 CALM      30.21R                  

$$
NMZ527>531-211300-
NORTHEAST HIGHLANDS/NORTHEAST PLAINS
  
CITY           SKY/WX    TMP DP  RH WIND       PRES   REMARKS
LAS VEGAS      FAIR      51  31  46 SW9       30.16R                  
6HR MIN TEMP:  50; 6HR MAX TEMP:  60;                                

RATON          FAIR      45  36  70 NE8       30.09R                  
6HR MIN TEMP:  45; 6HR MAX TEMP:  58;                                

CLAYTON        MOCLDY    63  61  93 SW12      30.04R                  
6HR MIN TEMP:  62; 6HR MAX TEMP:  65;                                


$$
NMZ532>537-211300-
EASTCENTRAL PLAINS
  
CITY           SKY/WX    TMP DP  RH WIND       PRES   REMARKS
TUCUMCARI      FAIR      66  62  87 S8        30.00R                  
6HR MIN TEMP:  66; 6HR MAX TEMP:  69;                                

CANNON AFB     MOCLDY    64  64 100 SE7       30.07R                  
6HR MIN TEMP:  63; 6HR MAX TEMP:  67;                                

CLOVIS AIRPORT CLOUDY    63  63 100 S8        30.06S FOG              

$$
NMZ028-029-033-538-211300-
SOUTHEAST PLAINS
  
CITY           SKY/WX    TMP DP  RH WIND       PRES   REMARKS
ROSWELL        MOCLDY    70  64  81 CALM      30.00R                  
6HR MIN TEMP:  69; 6HR MAX TEMP:  74;                                

ARTESIA        MOCLDY    70  68  94 CALM      30.01R                  
CARLSBAD       FAIR      72  62  71 SE6       29.96R                  
6HR MIN TEMP:  72; 6HR MAX TEMP:  75;                                

HOBBS          CLOUDY    72  64  78 SE15      30.03R                  


$$